sat.trackr.live / text

‹ back to catalog

STARLINK-32726

NORAD 62446 · 2024-251Q

PAYLOAD ACTIVE UNKNOWN

§ Identity

Operator
Country
US
Launch date
2024-12-29
Launch site
AFWTR
Launch vehicle
Mass (kg)
RCS (m²)

Purposes: comms

External: N2YO · Heavens-Above · Gunter

§ Orbital elements

Epoch: 2026-09-21T20:26:03.516576Z

Period
93.85 min
Inclination
53.1609°
Eccentricity
0.0002401
Mean motion
15.34400109 rev/d
Perigee alt
461.1 km
Apogee alt
464.3 km
Semi-major
6,840.8 km
B*
3.1488e-4
RAAN
141.1717°
Arg perigee
96.4781°
Mean anomaly
263.6495°
Rev number
9,771

§ Raw data

STARLINK-327261 62446U 24251Q   26264.85142959  .00010277  00000+0  31488-3 0  99922 62446  53.1609 141.1717 0002401  96.4781 263.6495 15.34400109 97718

JSON: /api/v1/satellites/62446 · /tle

For live sub-satellite position, see the globe view (requires WebGL).

§ Visibility from observer

Set your observer location to see the next 7 days of passes ≥ 10°. The values pass through the URL so the page stays shareable.

No JS? Fill the form by hand. The geolocation button needs JavaScript.